Weather History for Charlotte, MI

Change the Weather History Date:

Friday, December 7, 2012

  Actual Average (KLAN) Record (KLAN)
Temperature  
Mean Temperature 41 °F 31 °F  
Max Temperature 45 °F 37 °F 63 °F (1951)
Min Temperature 37 °F 25 °F -5 °F (1885)
Degree Days  
Heating Degree Days 24 34  
Month to date heating degree days 231  
Since 1 July heating degree days 1645  
Cooling Degree Days 0 0  
Month to date cooling degree days 0  
Year to date cooling degree days 625  
Moisture  
Dew Point 40 °F    
Average Humidity 93    
Maximum Humidity 100    
Minimum Humidity 85    
Precipitation  
Precipitation 0.12 in 0.07 in 1.02 in (1927)
Month to date precipitation 0.48  
Year to date precipitation 30.38  
Snow  
Snow 0.00 in 0.40 in 5.00 in (1909)
Month to date snowfall 2.4  
Since 1 July snowfall 6.2  
Snow Depth -    
Sea Level Pressure  
Sea Level Pressure 29.90 in    
Wind  
Wind Speed 2 mph (SSW)    
Max Wind Speed 6 mph    
Max Gust Speed -    
Visibility 5 miles    
Events Rain    
T = Trace of Precipitation, MM = Missing Value Source: NWS Daily Summary

Daily Weather History Graph

Daily Weather History Graph

Search for Another Location

Airport:

Trip Planner

Search our weather history database for the weather conditions in past years. The results will help you decide how hot, cold, wet, or windy it might be!

Date:

Astronomy

Dec. 07, 2012 Rise Set
Actual Time 7:55 AM EST 5:05 PM EST
Civil Twilight 7:24 AM EST 5:37 PM EST
Nautical Twilight 6:48 AM EST 6:13 PM EST
Astronomical Twilight 6:14 AM EST 6:47 PM EST
Moon 1:07 AM EST (12/7) 1:09 PM EST (12/7)
Length of Visible Light 10h 13m
Length of Day
9h 09m
Last Quarter, 39% of the Moon is Illuminated
Dec 7
Last Quarter
Dec 13
New
Dec 20
First Quarter
Dec 28
Full
Jan 4
Last Quarter

Hourly Weather History & Observations

Time (EST) Temp. Windchill Dew Point Humidity Pressure Visibility Wind Dir Wind Speed Gust Speed Precip Events Conditions
12:16 AM 37.4 °F 33.8 °F 33.8 °F 87% 29.92 in 10.0 mi SSW 4.6 mph - N/A   Mostly Cloudy
12:35 AM 37.6 °F 35.1 °F 34.0 °F 87% 29.92 in 10.0 mi SSW 3.5 mph - N/A   Mostly Cloudy
12:55 AM 37.4 °F 33.8 °F 34.0 °F 87% 29.91 in 10.0 mi South 4.6 mph - N/A   Mostly Cloudy
1:15 AM 38.1 °F 34.6 °F 34.7 °F 87% 29.90 in 10.0 mi SSW 4.6 mph - N/A   Overcast
1:35 AM 38.5 °F - 34.9 °F 87% 29.90 in 10.0 mi Calm Calm - N/A   Overcast
1:55 AM 38.7 °F - 34.9 °F 86% 29.90 in 10.0 mi Calm Calm - N/A   Overcast
2:15 AM 39.2 °F 37.0 °F 35.1 °F 85% 29.90 in 10.0 mi SSW 3.5 mph - N/A   Overcast
2:35 AM 39.2 °F 35.0 °F 35.2 °F 86% 29.90 in 10.0 mi SSW 5.8 mph - N/A   Overcast
2:55 AM 39.2 °F 37.0 °F 35.6 °F 87% 29.90 in 10.0 mi SSW 3.5 mph - N/A   Overcast
3:15 AM 39.2 °F 35.9 °F 35.6 °F 87% 29.90 in 10.0 mi SSW 4.6 mph - N/A   Overcast
3:35 AM 39.4 °F 37.2 °F 35.8 °F 87% 29.90 in 10.0 mi SW 3.5 mph - N/A   Overcast
3:55 AM 39.2 °F - 35.6 °F 87% 29.90 in 10.0 mi Calm Calm - N/A   Mostly Cloudy
4:15 AM 39.4 °F - 36.0 °F 88% 29.90 in 10.0 mi Calm Calm - N/A   Overcast
4:35 AM 39.4 °F - 36.0 °F 88% 29.90 in 10.0 mi Calm Calm - N/A   Overcast
4:55 AM 39.6 °F - 36.1 °F 88% 29.90 in 10.0 mi Calm Calm - N/A   Overcast
5:15 AM 39.6 °F - 36.3 °F 88% 29.90 in 10.0 mi Calm Calm - N/A   Overcast
5:35 AM 39.4 °F 37.2 °F 36.5 °F 89% 29.90 in 7.0 mi South 3.5 mph - N/A   Drizzle
5:55 AM 39.4 °F 37.2 °F 37.2 °F 92% 29.89 in 5.0 mi South 3.5 mph - N/A   Drizzle
6:15 AM 39.4 °F - 37.6 °F 93% 29.89 in 5.0 mi Calm Calm - 0.01 in Rain Light Rain
6:35 AM 39.6 °F - 37.9 °F 94% 29.91 in 4.0 mi Calm Calm - 0.02 in Rain Light Rain
6:55 AM 39.7 °F 37.6 °F 38.3 °F 95% 29.91 in 4.0 mi SSW 3.5 mph - 0.04 in Rain Light Rain
7:15 AM 39.9 °F - 38.7 °F 95% 29.91 in 3.0 mi Calm Calm - 0.02 in Rain Light Rain
7:35 AM 40.1 °F - 39.0 °F 96% 29.91 in 3.0 mi Calm Calm - 0.03 in Rain Rain
7:55 AM 39.7 °F - 38.8 °F 97% 29.91 in 2.0 mi Calm Calm - 0.04 in   Drizzle
8:15 AM 40.5 °F - 39.6 °F 97% 29.91 in 2.0 mi Calm Calm - N/A   Light Drizzle
8:35 AM 40.3 °F - 39.4 °F 97% 29.91 in 1.8 mi Calm Calm - 0.01 in Rain Rain
8:55 AM 40.3 °F 37.1 °F 39.6 °F 97% 29.92 in 1.2 mi South 4.6 mph - 0.02 in Rain Rain
9:15 AM 40.8 °F - 40.1 °F 97% 29.92 in 1.5 mi Calm Calm - 0.01 in Rain Light Rain
9:35 AM 41.0 °F - 40.5 °F 98% 29.93 in 1.5 mi Calm Calm - 0.02 in Rain Rain
9:55 AM 41.4 °F 39.4 °F 41.0 °F 99% 29.93 in 1.5 mi SSW 3.5 mph - 0.02 in   Drizzle
10:15 AM 41.5 °F 38.6 °F 41.0 °F 98% 29.93 in 1.5 mi SSW 4.6 mph - N/A   Drizzle
10:35 AM 42.1 °F 39.2 °F 41.5 °F 98% 29.93 in 1.8 mi SSW 4.6 mph - N/A   Light Drizzle
10:55 AM 42.6 °F 40.9 °F 41.9 °F 97% 29.93 in 1.8 mi SW 3.5 mph - N/A   Overcast
11:15 AM 42.8 °F 41.1 °F 42.3 °F 98% 29.93 in 2.0 mi SW 3.5 mph - N/A   Overcast
11:35 AM 43.0 °F 41.3 °F 42.4 °F 98% 29.93 in 2.0 mi SW 3.5 mph - N/A   Overcast
11:55 AM 43.7 °F - 42.8 °F 97% 29.92 in 2.5 mi Calm Calm - N/A   Overcast
12:15 PM 43.5 °F - 42.6 °F 97% 29.91 in 3.0 mi Calm Calm - N/A   Overcast
12:35 PM 43.9 °F - 43.0 °F 97% 29.91 in 3.0 mi Calm Calm - N/A   Overcast
12:55 PM 44.6 °F - 43.2 °F 95% 29.90 in 4.0 mi Calm Calm - N/A   Overcast
1:15 PM 43.9 °F - 42.4 °F 95% 29.89 in 4.0 mi Calm Calm - N/A   Overcast
1:35 PM 44.8 °F - 43.0 °F 93% 29.89 in 4.0 mi Calm Calm - N/A   Overcast
1:55 PM 44.6 °F - 42.8 °F 93% 29.89 in 4.0 mi Calm Calm - N/A   Overcast
2:15 PM 44.1 °F - 41.9 °F 92% 29.88 in 4.0 mi Calm Calm - N/A   Overcast
2:35 PM 44.6 °F - 42.3 °F 91% 29.88 in 4.0 mi Calm Calm - N/A   Overcast
2:55 PM 44.6 °F - 42.3 °F 91% 29.88 in 4.0 mi Calm Calm - N/A   Overcast
3:15 PM 44.6 °F - 41.9 °F 90% 29.89 in 4.0 mi Calm Calm - N/A   Overcast
3:35 PM 44.8 °F - 42.4 °F 91% 29.89 in 4.0 mi Calm Calm - N/A   Overcast
3:56 PM 45.0 °F - 42.3 °F 90% 29.89 in 4.0 mi Calm Calm - N/A   Overcast
4:15 PM 44.6 °F - 42.1 °F 91% 29.89 in 4.0 mi Calm Calm - N/A   Overcast
4:36 PM 44.4 °F - 42.1 °F 91% 29.89 in 4.0 mi Calm Calm - N/A   Overcast
4:55 PM 44.1 °F - 42.1 °F 93% 29.90 in 4.0 mi Calm Calm - N/A   Overcast
5:15 PM 43.7 °F - 41.9 °F 93% 29.90 in 4.0 mi Calm Calm - N/A   Overcast
5:35 PM 43.7 °F - 41.9 °F 93% 29.89 in 4.0 mi Calm Calm - N/A   Overcast
5:55 PM 43.2 °F - 41.7 °F 95% 29.89 in 4.0 mi Calm Calm - N/A   Overcast
6:16 PM 43.0 °F - 41.9 °F 96% 29.89 in 3.0 mi Calm Calm - N/A   Overcast
6:35 PM 43.0 °F - 41.7 °F 95% 29.89 in 3.0 mi Calm Calm - N/A   Overcast
6:56 PM 42.8 °F - 41.9 °F 97% 29.89 in 3.0 mi Calm Calm - N/A   Overcast
7:05 PM 42.8 °F - 41.9 °F 97% 29.89 in 3.0 mi Calm Calm - N/A   Overcast
7:36 PM 42.8 °F - 42.8 °F 100% 29.89 in 4.0 mi Calm Calm - N/A   Overcast
7:56 PM 42.8 °F - 41.0 °F 93% 29.89 in 3.0 mi Calm Calm - N/A   Overcast
8:17 PM 42.8 °F - 41.0 °F 93% 29.89 in 3.0 mi Calm Calm - N/A   Overcast
8:36 PM 42.8 °F - 41.0 °F 93% 29.89 in 3.0 mi Calm Calm - N/A   Overcast
8:57 PM 42.8 °F - 41.0 °F 93% 29.88 in 3.0 mi Calm Calm - N/A   Overcast
9:16 PM 42.8 °F - 41.0 °F 93% 29.87 in 3.0 mi Calm Calm - N/A   Overcast
9:39 PM 42.8 °F - 42.8 °F 100% 29.88 in 3.0 mi Calm Calm - N/A   Overcast
9:56 PM 42.8 °F - 42.8 °F 100% 29.87 in 3.0 mi Calm Calm - N/A   Overcast
10:17 PM 42.8 °F 41.1 °F 41.0 °F 93% 29.86 in 3.0 mi ENE 3.5 mph - N/A   Overcast
10:37 PM - - - N/A% - - North - - N/A   Unknown
11:37 PM 42.8 °F 41.1 °F 41.0 °F 93% 29.86 in 3.0 mi ENE 3.5 mph - N/A   Overcast
11:57 PM 42.8 °F 40.1 °F 41.0 °F 93% 29.86 in 2.5 mi East 4.6 mph - N/A   Overcast